Location: Stockholm
(59.3330°N, 18.0500°E)
Time: 11:17:02
(UTC+01:00)

FENGYUN 1C DEB - Pass Details

Date: 14 December 2023
Orbit: 841 x 915 km, 98.8° (Epoch: 21 February)

Event Time Altitude Azimuth Distance (km) Brightness Sun altitude
Exits shadow 18:33:14 17° 8° (N) 2,032 ? -26.2°
Drops below altitude 10° 18:34:54 10° 354° (N) 2,492 ? -26.5°
Sets 18:37:41 0° 342° (NNW) 3,441 ? -26.8°
